Regional Weather Roundup
Issued by NWS

Home | Current Version | Previous Version | Graphics & Text | Print | Product List | Glossary On
Versions: 1 2 3 4 5 6 7 8 9 10 11 12 13 14 15 16 17 18 19 20 21 22 23 24 25 26 27 28
000
ASUS45 KPSR 081710
RWRAZ

ARIZONA HOURLY REGIONAL WEATHER ROUNDUP
NATIONAL WEATHER SERVICE PHOENIX AZ
1000 AM MST THU DEC 08 2016

NOTE: FAIR INDICATES FEW OR NO CLOUDS BELOW 12,000 FEET WITH NO
SIGNIFICANT WEATHER AND/OR OBSTRUCTIONS TO VISIBILITY.

AZZ001>003-036-081800-
NORTHWEST ARIZONA

CITY           SKY/WX    TMP DP  RH WIND       PRES   REMARKS
BULLHEAD CITY  SUNNY     52  12  20 MISG      30.30R
KINGMAN        SUNNY     41   7  24 E3        30.27R
$$

AZZ004>008-015-016-018-081800-
NORTH CENTRAL ARIZONA

CITY           SKY/WX    TMP DP  RH WIND       PRES   REMARKS
GRAND CANYON   SUNNY     37  19  48 CALM      30.28R
WILLIAMS       SUNNY     41  25  52 S8        30.27R
PRESCOTT       SUNNY     34  25  69 CALM      30.28R
FLAGSTAFF      SUNNY     34  23  64 SW5       30.27R WCI  30
PAYSON         SUNNY     45  28  53 CALM      30.31R
PAGE           SUNNY     35   3  26 CALM      30.34R
$$

AZZ009>014-017-081800-
NORTHEAST ARIZONA

CITY           SKY/WX    TMP DP  RH WIND       PRES   REMARKS
WINSLOW        SUNNY     32  11  41 CALM      30.34R
SAINT JOHNS    SUNNY     35  26  69 N6        30.30R WCI  30
WINDOW ROCK    SUNNY     30  14  51 CALM      30.31R
SHOW LOW       SUNNY     39  25  56 SW7       30.28R WCI  34
$$

AZZ023-081800-
GREATER PHOENIX AREA

CITY           SKY/WX    TMP DP  RH WIND       PRES   REMARKS
PHOENIX        MOSUNNY   53  38  56 CALM      30.24R
BUCKEYE        SUNNY     50  36  57 CALM      30.26R
GLENDALE       SUNNY     54  39  58 CALM      30.26R
LUKE AFB       SUNNY     55  39  55 CALM      30.23R
DEER VALLEY    SUNNY     56  40  55 CALM      30.23R
SCOTTSDALE     SUNNY     53  41  63 SW3       30.25R
MESA-FALCON    MOSUNNY  N/A N/A N/A N12       30.21R
CHANDLER       SUNNY     52  41  66 CALM      30.24R
$$

AZZ027-028-081800-
SOUTHWEST MARICOPA COUNTY AND PINAL COUNTY

CITY           SKY/WX    TMP DP  RH WIND       PRES   REMARKS
CASA GRANDE    NOT AVBL
GILA BEND      FAIR     N/A N/A N/A CALM        N/A
$$

AZZ503-504-507>509-081800-
SOUTHEAST ARIZONA

CITY           SKY/WX    TMP DP  RH WIND       PRES   REMARKS
TUCSON         SUNNY     52  38  58 S5        30.25R
DAVIS-MONTHAN  SUNNY     55  40  57 SE3       30.23R
RYAN FIELD     SUNNY     54  39  58 NE3       30.25R
NOGALES        SUNNY     51  38  60 S3        30.24R
SIERRA VISTA   SUNNY     53  36  53 E5        30.27R
DOUGLAS        SUNNY     51  35  54 CALM      30.27R
SAFFORD        MOSUNNY   51  31  46 SE10      30.28R
$$

AZZ020-021-025-026-031-081800-
SOUTHWEST ARIZONA

CITY           SKY/WX    TMP DP  RH WIND       PRES   REMARKS
YUMA           SUNNY     57  11  16 N6        30.25R
$$

CAZ031-033-041-043-047-048-061-081800-
SOUTHERN CALIFORNIA

CITY           SKY/WX    TMP DP  RH WIND       PRES   REMARKS
DOWNTOWN L.A.  MOSUNNY   57  46  66 CALM      30.24R
L.A. AIRPORT   PTSUNNY   59  46  62 NE3       30.25R
SAN DIEGO      MOSUNNY   57  45  64 CALM      30.26R
BURBANK        MOSUNNY   56  38  50 CALM      30.23R
ONTARIO        MOSUNNY   53  38  56 SE3       30.25R
RIVERSIDE      MOSUNNY   52  41  66 E5        30.25R
PALM SPRINGS   SUNNY     57  33  40 CALM      30.27R
EL CENTRO NAS  MOSUNNY   56  26  31 W6        30.28R
IMPERIAL       SUNNY     53  33  46 SW3       30.26R
BLYTHE         SUNNY     51   7  16 CALM      30.28R
NEEDLES        SUNNY     53  14  21 N13       30.30R
$$

NVZ020-UTZ003-081800-
SOUTHERN NEVADA-UTAH

CITY           SKY/WX    TMP DP  RH WIND       PRES   REMARKS
LAS VEGAS      MOSUNNY   46   7  20 CALM      30.29R
SALT LAKE CITY PTSUNNY   27   9  46 SE6       30.25F WCI  20
$$

NMZ009-TXZ055-081800-
NEW MEXICO-WEST TEXAS

CITY           SKY/WX    TMP DP  RH WIND       PRES   REMARKS
ALBUQUERQUE    PTSUNNY   29  13  51 N8        30.42R WCI  21
EL PASO        PTSUNNY   37  23  56 E13       30.42R WCI  29
$$


........................KEY........................
SKY/WX - SKY CONDITION/WEATHER
TMP    - TEMPERATURE IN FAHRENHEIT
DP     - DEW POINT IN FAHRENHEIT
RH     - RELATIVE HUMIDITY IN PERCENT
WIND   - DIRECTION AND SPEED IN MILES PER HOUR (MPH)
VRB    - VARIABLE WIND DIRECTION
PRES   - MEAN SEA LEVEL PRESSURE IN INCHES OF MERCURY
         F - FALLING PRESSURE   R - RISING PRESSURE
         S - STEADY PRESSURE
VSB    - VISIBILITY IN MILES
HX     - HEAT INDEX IN FAHRENHEIT
WCI    - WIND CHILL INDEX IN FAHRENHEIT
TC     - TEMPERATURE IN CELSIUS WHICH IS ALSO KNOWN AS
         TEMPERATURE IN CENTIGRADE
AFB    - AIR FORCE BASE
         LUKE AFB IS LUKE AIR FORCE BASE
         DAVIS-MONTHAN IS DAVIS-MONTHAN AIR FORCE BASE
NAS    - NAVAL AIR STATION
         EL CENTRO NAS IS EL CENTRO NAVAL AIR STATION
N/A    - NOT AVAILABLE





USA.gov is the U.S. government's official web portal to all federal, state and local government web resources and services.